Regional Weather Roundup
Issued by NWS

Home | Current Version | Previous Version | Graphics & Text | Print | Product List | Glossary On
Versions: 1 2 3 4 5 6 7 8 9 10 11 12 13 14 15 16 17 18 19 20 21 22 23 24 25 26 27 28 29 30 31 32 33 34 35 36 37 38 39 40 41 42 43 44 45 46 47 48 49 50
000
ASUS45 KSLC 282310
RWRUT

UTAH REGIONAL WEATHER ROUNDUP
NATIONAL WEATHER SERVICE SALT LAKE CITY UT
400 PM MST SAT FEB 28 2015

UTZ001>011-023>025-010000-

NORTHERN UTAH

CITY           SKY/WX    TMP DP  RH WIND       PRES   REMARKS
BRIGHAM CITY   CLOUDY    45  15  29 NE13      29.73R
HILL AFB       CLOUDY    39  20  47 E17G24    29.72R WCI  30
LOGAN          SUNNY     44  16  32 E12       29.73R
OGDEN          CLOUDY    43  21  41 SE10      29.71R
PROVO AIRPORT  CLOUDY    39  28  65 NW14      29.71R WCI  31
SALT LAKE CITY CLOUDY    40  28  62 N9G16     29.73R WCI  34
VERNAL         CLOUDY    40  19  43 SE3       29.73R
WENDOVER       CLOUDY    41  25  52 N15       29.75R
HEBER CITY     LGT SNOW  32  30  93 CALM      29.71R
WEST JORDAN    CLOUDY    36  34  93 W8        29.73R WCI  29

$$

UTZ012>022-026-027-010000-

SOUTHERN/CENTRAL UTAH

CITY           SKY/WX    TMP DP  RH WIND       PRES   REMARKS
BLANDING       CLOUDY    32  32 100 SE7       29.86R VSB 1/2 WCI  26
CEDAR CITY     CLOUDY    35  32  88 W8        29.72R WCI  29
DELTA          CLOUDY    37  33  85 W6        29.72R WCI  32
HANKSVILLE     CLOUDY    39  34  81 N12       29.75R WCI  32
MILFORD        CLOUDY    38  32  79 S20       29.72R WCI  28
MOAB/CYNLANDS  CLOUDY    40  31  70 E8        29.73S WCI  34
PRICE          LGT SNOW  34  29  82 S8        29.71R WCI  27
ST GEORGE      CLOUDY    52  37  58 NW6       29.74S
KANAB          PTSUNNY   46  25  42 SW17      29.76R

$$

REGIONAL REPORTS     COLORADO/ARIZONA

CITY           SKY/WX    TMP DP  RH WIND       PRES   REMARKS
CRAIG, CO      CLOUDY    40  12  32 CALM      29.72
GRAND JUNCTION PTSUNNY   42  27  55 S12       29.73R
RIFLE          CLOUDY    43  17  35 CALM      29.71S
MONTROSE       CLOUDY    31  28  89 W3        29.79R
CORTEZ         CLOUDY    35  33  92 CALM      29.81S
PAGE, AZ       CLOUDY    46  35  65 N6        29.73R
GRAND CANYON   CLOUDY    37  29  72 SW17      29.79R WCI  27
KINGMAN        CLOUDY    56  32  40 S23G29    29.77R
FLAGSTAFF      LGT SNOW  36  32  85 SW15      29.82R FOG     WCI  27

$$

REGIONAL REPORTS    NEVADA/IDAHO/WYOMING

CITY           SKY/WX    TMP DP  RH WIND       PRES   REMARKS
LAS VEGAS, NV  MOSUNNY   61  24  24 SW17G35   29.66R
ELY            CLOUDY    35  29  78 VRB3      29.69R
ELKO           CLOUDY    39  30  70 NE9       29.72R WCI  33
POCATELLO, ID  MOSUNNY   46  16  30 NE16      29.77R
BURLEY         MOSUNNY   47  15  27 NE9       29.76R
EVANSTON, WY   CLOUDY    28  17  63 E14       29.72S WCI  17
ROCK SPRINGS   PTSUNNY   23  12  62 NE16G26   29.78R WCI  10
KEMMERER       PTSUNNY   30  14  51 NE16      29.74S WCI  19

$$



USA.gov is the U.S. government's official web portal to all federal, state and local government web resources and services.